• In Latvia
  • List of Countries
  • For 7 days
  • Water Temperature
  • Satellite Maps
  • Weather Map
  • Weather Widgets
  • user-avatar
    Login

    Hourly Weather Kitzbuhel

    Today, 28 March, Tuesday

    Time Temperature Precipitation Wind Pressure Humidity
    00:00 +2°C° 0 mm 1 mps 679 mmHg 86%
    01:00 +2°C° 0 mm 1 mps 679 mmHg 85%
    02:00 +2°C° 0 mm 1 mps 679 mmHg 84%
    03:00 +2°C° 0 mm 1 mps 679 mmHg 83%
    04:00 +2°C° 0 mm 1 mps 679 mmHg 82%
    05:00 +2°C° 0 mm 1 mps 679 mmHg 81%
    06:00 +3°C° 0 mm 1 mps 679 mmHg 79%
    07:00 +4°C° 0 mm 1 mps 679 mmHg 78%
    08:00 +6°C° 0 mm 1 mps 680 mmHg 73%
    09:00 +9°C° 0 mm 1 mps 680 mmHg 69%
    10:00 +12°C° 0 mm 1 mps 681 mmHg 65%
    11:00 +13°C° 0 mm 1 mps 681 mmHg 64%
    12:00 +13°C° 0 mm 1 mps 681 mmHg 63%
    13:00 +14°C° 0 mm 1 mps 681 mmHg 63%
    14:00 +14°C° 0 mm 1 mps 681 mmHg 65%
    15:00 +13°C° 0 mm 1 mps 681 mmHg 68%
    16:00 +13°C° 0 mm 1 mps 681 mmHg 71%
    17:00 +11°C° 0 mm 1 mps 680 mmHg 79%
    18:00 +9°C° 0 mm 1 mps 680 mmHg 86%
    19:00 +6°C° 0 mm 1 mps 680 mmHg 93%
    20:00 +6°C° 0 mm 1 mps 680 mmHg 94%
    21:00 +6°C° 0 mm 1 mps 680 mmHg 94%
    22:00 +6°C° 0 mm 1 mps 681 mmHg 95%
    23:00 +6°C° 0 mm 1 mps 681 mmHg 95%

    Tomorrow, 29 March, Wednesday

    Time Temperature Precipitation Wind Pressure Humidity
    00:00 +6°C° 0 mm 1 mps 681 mmHg 95%
    01:00 +6°C° 0 mm 1 mps 682 mmHg 95%
    02:00 +6°C° 0 mm 1 mps 682 mmHg 95%
    03:00 +6°C° 0 mm 1 mps 682 mmHg 95%
    04:00 +5°C° 0 mm 2 mps 682 mmHg 95%
    05:00 +6°C° 0.1 mm 1 mps 682 mmHg 95%
    06:00 +7°C° 0.1 mm 1 mps 682 mmHg 94%
    07:00 +7°C° 0.1 mm 1 mps 683 mmHg 94%
    08:00 +8°C° 0 mm 1 mps 683 mmHg 90%
    09:00 +10°C° 0 mm 1 mps 683 mmHg 85%
    10:00 +11°C° 0 mm 1 mps 683 mmHg 81%
    11:00 +12°C° 0.1 mm 1 mps 683 mmHg 78%
    12:00 +13°C° 0.1 mm 1 mps 683 mmHg 75%
    13:00 +13°C° 0.1 mm 1 mps 683 mmHg 71%
    14:00 +13°C° 0 mm 1 mps 683 mmHg 72%
    15:00 +13°C° 0 mm 1 mps 682 mmHg 73%
    16:00 +13°C° 0 mm 1 mps 682 mmHg 74%
    17:00 +11°C° 0 mm 1 mps 682 mmHg 81%
    18:00 +9°C° 0 mm 1 mps 682 mmHg 88%
    19:00 +7°C° 0 mm 1 mps 681 mmHg 95%
    20:00 +6°C° 0 mm 1 mps 682 mmHg 96%
    21:00 +6°C° 0 mm 1 mps 682 mmHg 96%
    22:00 +6°C° 0 mm 1 mps 682 mmHg 96%
    23:00 +6°C° 0 mm 1 mps 683 mmHg 95%

    Day after tomorrow, 30 March, Thursday

    Time Temperature Precipitation Wind Pressure Humidity
    00:00 +5°C° 0 mm 1 mps 683 mmHg 94%
    01:00 +5°C° 0 mm 1 mps 683 mmHg 94%
    02:00 +5°C° 0 mm 1 mps 682 mmHg 92%
    03:00 +4°C° 0 mm 1 mps 682 mmHg 91%
    04:00 +4°C° 0 mm 1 mps 682 mmHg 90%
    05:00 +5°C° 0 mm 1 mps 682 mmHg 88%
    06:00 +5°C° 0 mm 1 mps 683 mmHg 86%
    07:00 +6°C° 0 mm 1 mps 683 mmHg 84%
    08:00 +8°C° 0 mm 1 mps 683 mmHg 78%
    09:00 +11°C° 0 mm 1 mps 684 mmHg 72%
    10:00 +13°C° 0 mm 1 mps 684 mmHg 67%
    11:00 +14°C° 0 mm 1 mps 684 mmHg 64%
    12:00 +15°C° 0 mm 1 mps 684 mmHg 60%
    13:00 +16°C° 0 mm 1 mps 684 mmHg 57%
    14:00 +15°C° 0 mm 1 mps 683 mmHg 59%
    15:00 +15°C° 0 mm 1 mps 683 mmHg 61%
    16:00 +15°C° 0 mm 1 mps 683 mmHg 63%
    17:00 +12°C° 0 mm 1 mps 682 mmHg 72%
    18:00 +10°C° 0 mm 1 mps 682 mmHg 82%
    19:00 +7°C° 0 mm 1 mps 681 mmHg 92%
    20:00 +7°C° 0 mm 1 mps 681 mmHg 91%
    21:00 +6°C° 0 mm 2 mps 681 mmHg 91%
    22:00 +6°C° 0 mm 2 mps 682 mmHg 90%
    23:00 +6°C° 0 mm 2 mps 682 mmHg 89%

    31 March, Friday

    Time Temperature Precipitation Wind Pressure Humidity
    00:00 +6°C° 0 mm 2 mps 681 mmHg 89%
    01:00 +6°C° 0 mm 2 mps 681 mmHg 88%
    02:00 +5°C° 0 mm 2 mps 681 mmHg 89%
    03:00 +5°C° 0 mm 2 mps 681 mmHg 89%
    04:00 +5°C° 0 mm 2 mps 680 mmHg 89%
    05:00 +5°C° 0 mm 2 mps 680 mmHg 88%
    06:00 +6°C° 0 mm 2 mps 680 mmHg 88%
    07:00 +6°C° 0 mm 2 mps 680 mmHg 87%
    08:00 +9°C° 0 mm 2 mps 680 mmHg 79%
    09:00 +12°C° 0 mm 2 mps 681 mmHg 71%
    10:00 +15°C° 0 mm 1 mps 681 mmHg 63%
    11:00 +16°C° 0 mm 1 mps 680 mmHg 59%
    12:00 +18°C° 0 mm 1 mps 680 mmHg 56%
    13:00 +19°C° 0 mm 1 mps 680 mmHg 53%
    14:00 +18°C° 0 mm 1 mps 680 mmHg 55%
    15:00 +18°C° 0 mm 1 mps 679 mmHg 58%
    16:00 +18°C° 0 mm 1 mps 679 mmHg 60%
    17:00 +14°C° 0 mm 1 mps 678 mmHg 71%
    18:00 +11°C° 0 mm 1 mps 678 mmHg 82%
    19:00 +8°C° 0 mm 1 mps 677 mmHg 92%
    20:00 +8°C° 0 mm 1 mps 677 mmHg 91%
    21:00 +6°C° 0 mm 2 mps 677 mmHg 90%
    22:00 +6°C° 0 mm 2 mps 677 mmHg 88%
    23:00 +6°C° 0 mm 2 mps 677 mmHg 87%

    1 April, Saturday

    Time Temperature Precipitation Wind Pressure Humidity
    00:00 +6°C° 0 mm 2 mps 677 mmHg 87%
    01:00 +6°C° 0 mm 2 mps 677 mmHg 86%
    02:00 +5°C° 0 mm 2 mps 677 mmHg 85%
    03:00 +5°C° 0 mm 2 mps 677 mmHg 85%
    04:00 +5°C° 0 mm 2 mps 677 mmHg 85%
    05:00 +5°C° 0 mm 2 mps 677 mmHg 83%
    06:00 +6°C° 0 mm 2 mps 677 mmHg 82%
    07:00 +7°C° 0 mm 2 mps 677 mmHg 81%
    08:00 +10°C° 0 mm 1 mps 677 mmHg 75%
    09:00 +12°C° 0 mm 1 mps 677 mmHg 68%
    10:00 +14°C° 0 mm 1 mps 677 mmHg 61%
    11:00 +15°C° 0 mm 1 mps 677 mmHg 60%
    12:00 +15°C° 0 mm 2 mps 677 mmHg 58%
    13:00 +16°C° 0 mm 2 mps 677 mmHg 56%
    14:00 +16°C° 0.2 mm 2 mps 676 mmHg 59%
    15:00 +15°C° 0.2 mm 2 mps 676 mmHg 62%
    16:00 +15°C° 0.2 mm 2 mps 676 mmHg 64%
    17:00 +13°C° 0.3 mm 2 mps 675 mmHg 73%
    18:00 +10°C° 0.3 mm 2 mps 675 mmHg 82%
    19:00 +7°C° 0.3 mm 2 mps 675 mmHg 91%
    20:00 +7°C° 0.1 mm 2 mps 675 mmHg 91%
    21:00 +6°C° 0.1 mm 2 mps 675 mmHg 90%
    22:00 +6°C° 0.1 mm 2 mps 676 mmHg 90%
    23:00 +5°C° 0 mm 2 mps 676 mmHg 90%

    2 April, Sunday

    Time Temperature Precipitation Wind Pressure Humidity
    00:00 +5°C° 0 mm 2 mps 676 mmHg 90%
    01:00 +5°C° 0 mm 2 mps 676 mmHg 90%
    02:00 +4°C° 0 mm 2 mps 676 mmHg 89%
    03:00 +4°C° 0 mm 2 mps 677 mmHg 88%
    04:00 +4°C° 0 mm 2 mps 677 mmHg 88%
    05:00 +5°C° 0 mm 2 mps 677 mmHg 84%
    06:00 +6°C° 0 mm 1 mps 678 mmHg 80%
    07:00 +7°C° 0 mm 1 mps 678 mmHg 76%
    08:00 +9°C° 0 mm 1 mps 679 mmHg 71%
    09:00 +11°C° 0 mm 1 mps 679 mmHg 66%
    10:00 +13°C° 0 mm 1 mps 680 mmHg 61%
    11:00 +13°C° 0.1 mm 1 mps 680 mmHg 60%
    12:00 +14°C° 0.1 mm 1 mps 680 mmHg 59%
    13:00 +15°C° 0.1 mm 1 mps 680 mmHg 58%
    14:00 +14°C° 0.1 mm 1 mps 680 mmHg 62%
    15:00 +14°C° 0.1 mm 1 mps 680 mmHg 65%
    16:00 +14°C° 0.1 mm 1 mps 679 mmHg 69%
    17:00 +12°C° 0.1 mm 1 mps 679 mmHg 77%
    18:00 +9°C° 0.1 mm 1 mps 679 mmHg 86%
    19:00 +7°C° 0.1 mm 1 mps 679 mmHg 95%
    20:00 +7°C° 0.2 mm 1 mps 679 mmHg 96%
    21:00 +7°C° 0.2 mm 1 mps 680 mmHg 96%
    22:00 +7°C° 0.2 mm 1 mps 680 mmHg 97%
    23:00 +7°C° 0 mm 1 mps 680 mmHg 97%
    Show more